Location: ?????????
(54.7630°N, 39.4991°E)
Time: 19:56:30
(UTC+00:00)

Cosmos 2297 - Pass Details

Date: 14 April 2026
Orbit: 833 x 859 km, 71.0° (Epoch: 19 May)

Event Time Altitude Azimuth Distance (km) Brightness Sun altitude
Rises 20:06:29 0° 325° (NW) 3,445 8.2 -23.7°
Reaches altitude 10° 20:09:01 10° 320° (NW) 2,505 7.1 -23.8°
Maximum altitude 20:14:31 48° 248° (WSW) 1,115 4.2 -24.0°
Enters shadow 20:15:33 43° 216° (SW) 1,191 4.2 -24.1°
